Back to catalog

YAOGAN 16A

AliveMilitaryLEO
NORAD 39011·PAYLOAD·🇨🇳 China

Launched Nov 25, 2012 from Jiuquan Satellite Launch Center

Loading…

Next Passes (next 24 hours)

TLE

FreshSource: Space-Track

Epoch: Sep 14, 2026, 10:31 UTC

1 39011U 12066A   26257.43883906 -.00000076  00000-0  13653-4 0  9998
2 39011  63.3521  59.2592 0442623  27.9025 334.4993 13.45521761678151

Track YAOGAN 16A in real time with AllMySat

Download on the App Store